Regional Weather Roundup
Issued by NWS

Home | Current Version | Previous Version | Text Only | Print | Product List | Glossary Off
Versions: 1 2 3 4 5 6 7 8 9 10 11 12 13 14 15 16 17 18 19 20 21 22 23 24 25 26 27

000
ASUS45 KSLC 211810
RWRUT

UTAH REGIONAL WEATHER ROUNDUP
NATIONAL WEATHER SERVICE SALT LAKE CITY UT
1200 PM MDT SAT OCT 21 2017

UTZ001>011-023>025-211900-

NORTHERN UTAH

CITY           SKY/WX    TMP DP  RH WIND       PRES   REMARKS
BRIGHAM CITY   MOSUNNY   47  25  42 S8        30.23S
HILL AFB       MOSUNNY   44  26  50 SW7       30.22S
LOGAN          MOSUNNY   45  26  47 N5        30.20S
OGDEN          MOSUNNY   45  28  51 S10       30.22R
SALT LAKE CITY MOSUNNY   50  22  33 W9        30.24R
TOOELE VALLEY  SUNNY     46  25  42 CALM      30.24S
WENDOVER       SUNNY     47  20  34 E5        30.24R
WEST JORDAN    MOSUNNY   46  26  44 CALM      30.24S

$$

UTZ011>015-024>027-211900-

CENTRAL/NORTHEAST UTAH

CITY           SKY/WX    TMP DP  RH WIND       PRES   REMARKS
PROVO AIRPORT  MOSUNNY   47  25  42 W5        30.25S
MOAB/CANYONLAN SUNNY     52  16  24 NW10G21   30.17R
DELTA          SUNNY     45  19  36 W5        30.25S
PRICE          SUNNY     44  18  35 NW3       30.18S
ROOSEVELT      SUNNY     50  16  25 SW12G21   30.19R
VERNAL         SUNNY     45  17  32 SE7       30.18R

$$

UTZ013>016-019>022-027-211900-

SOUTHERN UTAH

CITY           SKY/WX    TMP DP  RH WIND       PRES   REMARKS
BRYCE CANYON   SUNNY     41  15  35 NE9       30.24R
CEDAR CITY     SUNNY     50  15  24 N10       30.22R
MILFORD        SUNNY     49  18  29 N8        30.24R
ST GEORGE      CLEAR     58  17  20 NW6       30.19S
HANKSVILLE     SUNNY     52  14  22 N3        30.22F
BLANDING         N/A     49   8  18 NW12G20   30.25R

$$

REGIONAL REPORTS     COLORADO/ARIZONA

CITY           SKY/WX    TMP DP  RH WIND       PRES   REMARKS
CRAIG, CO      SUNNY     32  24  72 CALM      30.17F
GRAND JUNCTION SUNNY     49  20  31 CALM      30.18S
RIFLE, CO      SUNNY     44  20  38 SW3       30.18F
MONTROSE, CO   SUNNY     46  13  26 CALM      30.20R
CORTEZ, CO     SUNNY     51   1  13 N17G25    30.14S
COLORADO CITY    N/A     55  16  21 CALM      30.22F
PAGE, AZ       SUNNY     57  18  21 E6        30.18F
GRAND CANYON   SUNNY     53   6  15 VRB5      30.21R
KINGMAN, AZ    SUNNY     65  15  14 N12G18    30.17S
FLAGSTAFF, AZ  SUNNY     55  21  26 NE12      30.21R

$$

REGIONAL REPORTS    NEVADA/IDAHO/WYOMING

CITY           SKY/WX    TMP DP  RH WIND       PRES   REMARKS
LAS VEGAS, NV  MOSUNNY   65  17  15 E6        30.18S
ELY, NY        SUNNY     43  15  32 NE5       30.25S
ELKO, NV       SUNNY     46  23  40 S7        30.22F
POCATELLO, ID  MOSUNNY   43  25  49 SW20G26   30.20R
BURLEY, ID     MOSUNNY   43  26  51 W6        30.19R
FORT BRIDGER,  CLOUDY    39  20  45 W21G26    30.19S WCI  29
EVANSTON, WY   CLOUDY    36  21  54 W18G25    30.18S WCI  26
ROCK SPRINGS,  MOSUNNY   37  13  37 W24G32    30.13R WCI  26
KEMMERER, WY   CLOUDY    32  18  55 W16       30.15S WCI  21

$$




USA.gov is the U.S. government's official web portal to all federal, state and local government web resources and services.